McMinnville, OR

3:29 AM PST on December 14, 2017 (GMT -0800)
McMinnville Municipal

Weather History for KMMV - February, 2013

Change the Weather History Date:

Saturday, February 16, 2013

  Actual Average Record
Temperature  
Mean Temperature 46 °F 43 °F  
Max Temperature 55 °F 51 °F 66 °F (1902)
Min Temperature 36 °F 35 °F 15 °F (1956)
Degree Days  
Heating Degree Days 19 22  
Month to date heating degree days 319 366  
Since 1 July heating degree days 2816 3121  
Cooling Degree Days 0 0  
Month to date cooling degree days 0 0  
Year to date cooling degree days 0 0  
Moisture  
Dew Point 40 °F    
Average Humidity 75    
Maximum Humidity 96    
Minimum Humidity 54    
Precipitation  
Precipitation 0.01 in 0.12 in 1.59 in (2017)
Month to date precipitation 0.39 2.75  
Year to date precipitation 1.38 8.85  
Snow  
Snow 0.00 in - - ()
Month to date snowfall 0.0  
Snow Depth 0.00 in    
Sea Level Pressure  
Sea Level Pressure 30.26 in    
Wind  
Wind Speed 6 mph (WSW)    
Max Wind Speed 17 mph    
Max Gust Speed 22 mph    
Visibility 4 miles    
Events Fog , Rain    
T = Trace of Precipitation, MM = Missing Value Source: NWS Daily Summary

Daily Weather History Graph

Daily Weather History Graph

Search for Another Location

Airport or City:

Trip Planner

Search our weather history database for the weather conditions in past years. The results will help you decide how hot, cold, wet, or windy it might be!

Date:

Astronomy

Feb. 16, 2013 Rise Set
Actual Time 7:11 AM PST 5:42 PM PST
Civil Twilight 6:41 AM PST 6:12 PM PST
Nautical Twilight 6:07 AM PST 6:46 PM PST
Astronomical Twilight 5:33 AM PST 7:20 PM PST
Moon 10:07 AM PST (2/16) 12:06 AM PST (2/16)
Length of Visible Light 11h 30m
Length of Day
10h 30m
Waxing Crescent, 40% of the Moon is Illuminated
Feb 16
Waxing Crescent
Feb 17
First Quarter
Feb 25
Full
Mar 4
Last Quarter
Mar 11
New

Hourly Weather History & Observations

Time (PST) Temp. Windchill Dew Point Humidity Pressure Visibility Wind Dir Wind Speed Gust Speed Precip Events Conditions
12:14 AM 39.2 °F - 37.4 °F 93% 30.24 in 3.0 mi Calm Calm - N/A   Clear
12:36 AM 41.0 °F 39.0 °F 37.4 °F 87% 30.25 in 4.0 mi WNW 3.5 mph - N/A   Scattered Clouds
12:45 AM 41.0 °F - 37.4 °F 87% 30.24 in 4.0 mi Calm Calm - N/A   Mostly Cloudy
12:53 AM 39.9 °F 35.8 °F 37.9 °F 93% 30.25 in 3.0 mi West 5.8 mph - N/A   Mostly Cloudy
1:02 AM 41.0 °F 37.1 °F 37.4 °F 87% 30.25 in 1.5 mi WSW 5.8 mph - N/A   Overcast
1:09 AM 41.0 °F 39.0 °F 39.2 °F 93% 30.25 in 0.2 mi WSW 3.5 mph - N/A Fog Fog
1:24 AM 41.0 °F 38.0 °F 39.2 °F 93% 30.24 in 0.2 mi WSW 4.6 mph - N/A Fog Fog
1:32 AM 41.0 °F 37.1 °F 39.2 °F 93% 30.24 in 0.5 mi WSW 5.8 mph - N/A Fog Fog
1:45 AM 42.8 °F 39.3 °F 39.2 °F 87% 30.24 in 1.0 mi SW 5.8 mph - N/A   Mist
1:53 AM 42.1 °F 39.2 °F 39.9 °F 92% 30.25 in 0.5 mi SW 4.6 mph - N/A Fog Fog
2:53 AM 42.1 °F - 41.0 °F 96% 30.24 in 0.8 mi Calm Calm - N/A   Mist
3:00 AM 42.8 °F 41.1 °F 41.0 °F 93% 30.24 in 1.0 mi SW 3.5 mph - N/A   Mist
3:20 AM 42.8 °F - 41.0 °F 93% 30.23 in 3.0 mi Calm Calm - N/A   Overcast
3:37 AM 42.8 °F 40.1 °F 41.0 °F 93% 30.23 in 1.8 mi East 4.6 mph - N/A   Overcast
3:53 AM 43.0 °F 41.3 °F 41.0 °F 93% 30.23 in 1.5 mi East 3.5 mph - N/A   Overcast
4:53 AM 43.0 °F - 41.0 °F 93% 30.24 in 1.5 mi Calm Calm - N/A   Overcast
5:32 AM 42.8 °F 41.1 °F 41.0 °F 93% 30.25 in 0.8 mi NE 3.5 mph - N/A   Mist
5:43 AM 42.8 °F 41.1 °F 41.0 °F 93% 30.25 in 1.0 mi NE 3.5 mph - N/A   Overcast
5:53 AM 43.0 °F 41.3 °F 41.0 °F 93% 30.25 in 1.2 mi ENE 3.5 mph - N/A   Overcast
6:08 AM 42.8 °F - 41.0 °F 93% 30.26 in 2.5 mi Calm Calm - N/A   Overcast
6:16 AM 42.8 °F - 41.0 °F 93% 30.26 in 3.0 mi Calm Calm - N/A   Overcast
6:28 AM 42.8 °F - 41.0 °F 93% 30.26 in 2.5 mi Calm Calm - N/A   Overcast
6:35 AM 42.8 °F - 41.0 °F 93% 30.26 in 3.0 mi Calm Calm - N/A   Overcast
6:43 AM 42.8 °F - 41.0 °F 93% 30.26 in 3.0 mi Calm Calm - N/A   Overcast
6:53 AM 42.1 °F - 41.0 °F 96% 30.27 in 3.0 mi Calm Calm - N/A   Overcast
6:58 AM 42.8 °F - 39.2 °F 87% 30.27 in 1.5 mi Calm Calm - N/A   Overcast
7:07 AM 42.8 °F - 41.0 °F 93% 30.27 in 0.5 mi Calm Calm - N/A Fog Fog
7:21 AM 42.8 °F - 41.0 °F 93% 30.27 in 1.8 mi Calm Calm - N/A   Overcast
7:51 AM 42.8 °F - 41.0 °F 93% 30.28 in 0.2 mi Calm Calm - N/A Fog Fog
7:53 AM 42.1 °F - 41.0 °F 96% 30.28 in 0.2 mi Calm Calm - N/A Fog Fog
8:27 AM 42.8 °F - 42.8 °F 100% 30.28 in 1.0 mi Calm Calm - N/A   Overcast
8:43 AM 44.6 °F - 42.8 °F 93% 30.28 in 2.5 mi Calm Calm - N/A   Overcast
8:51 AM 44.6 °F - 42.8 °F 93% 30.28 in 5.0 mi Calm Calm - N/A   Overcast
8:53 AM 44.1 °F - 42.1 °F 93% 30.29 in 6.0 mi Calm Calm - N/A   Overcast
9:15 AM 46.4 °F 42.9 °F 44.6 °F 93% 30.28 in 10.0 mi SW 6.9 mph - N/A   Overcast
9:53 AM 48.0 °F - 43.0 °F 83% 30.28 in 10.0 mi SW 9.2 mph - N/A   Overcast
10:53 AM 50.0 °F - 43.0 °F 77% 30.28 in 10.0 mi SW 11.5 mph - N/A   Overcast
11:53 AM 50.0 °F - 43.0 °F 77% 30.28 in 10.0 mi SW 11.5 mph - N/A   Overcast
12:53 PM 51.1 °F - 41.0 °F 68% 30.26 in 10.0 mi WSW 9.2 mph - 0.00 in Rain Light Rain
1:53 PM 53.1 °F - 41.0 °F 64% 30.25 in 10.0 mi West 16.1 mph 21.9 mph 0.01 in   Overcast
2:53 PM 50.0 °F - 37.0 °F 61% 30.25 in 10.0 mi West 10.4 mph - N/A   Mostly Cloudy
3:53 PM 53.1 °F - 37.9 °F 57% 30.25 in 10.0 mi WSW 11.5 mph - N/A   Overcast
4:53 PM 50.0 °F - 37.9 °F 63% 30.26 in 10.0 mi West 8.1 mph - N/A   Overcast
5:53 PM 46.0 °F 42.5 °F 37.0 °F 71% 30.27 in 10.0 mi WSW 6.9 mph - N/A   Clear
6:53 PM 44.1 °F 39.5 °F 37.0 °F 76% 30.27 in 10.0 mi WSW 8.1 mph - N/A   Clear
7:53 PM 42.1 °F 40.2 °F 37.0 °F 82% 30.29 in 10.0 mi SSW 3.5 mph - N/A   Scattered Clouds
8:53 PM 42.1 °F 40.2 °F 36.0 °F 79% 30.30 in 10.0 mi West 3.5 mph - N/A   Clear
9:53 PM 37.0 °F 32.4 °F 33.1 °F 86% 30.30 in 10.0 mi WSW 5.8 mph - N/A   Clear
10:53 PM 37.0 °F 33.3 °F 33.1 °F 86% 30.31 in 10.0 mi West 4.6 mph - N/A   Clear
11:53 PM 36.0 °F 30.3 °F 33.1 °F 89% 30.30 in 10.0 mi WSW 6.9 mph - N/A   Clear